DECAYED

SL-4 R/B, 68320 (Decayed)

Orbit data source: Space-Track

SL-4 R/B, 68320 was space debris in LEO originally from a launch on Sun, 22 Mar 2026 UTC launched from the Tyuratam Missile And Space Complex (TTMTR). Debris objects in space refer to the collection of defunct objects orbiting the Earth. Examples of debris include non-operational satellites, rocket bodies, and fragments generated from explosions, collisions, or faulty payload assembly.

Not visible in the next 10 days
Identifier
68320, 2026-058B
Orbit
Decayed
Country
Flag of CISCIS
Related business
Manufacturer
TsSKB-Progress
Mission
Decayed spacecraft
Bus & Motor
BLOK-I, RD-0980
Mass
2,350 kg wet, 2,350 kg dry
Launch date (UTC)
2026-03-22 (3 months ago)
Launch vehicle
Unknown
Launch site
Tyuratam Missile And Space Complex (TTMTR)
Object type
Payload
Rocket body
Debris
Shape & HBR
Unknown shape, 8.0 m
Radar Cross Section
Large (>1 m²)

Expand to show TLE details & history
Last TLE update: 3 months ago

TLE from 3 months ago
0 SL-4 R/B
1 68320U 26058B   26083.14431863  .10751138  12561-4  27517-3 0  9999
2 68320  51.6482   0.7405 0007315  84.8434 275.3430 16.45417185   275
Epoch: 2026-03-24T03:27Z
TLE epoch observation values (Epoch: 2026-03-24T03:27:49.129Z)
Latitude
-0.00002°
Longitude
127.15959°
Altitude
151.763 km
Speed
7.817 km/s
True Right ascension
00h 02m 57s
True Declination
0° 00' 00"
Sunlit
Object was in daylight at epoch
Visualization orbit readout
Latitude
Unknown
Longitude
Unknown
Altitude
Unknown
Speed
Unknown
Apparent Right ascension
Unknown
Apparent Declination
Unknown
Sunlit
N/A
Visualization observer readout
Local Sidereal Time
07:19:15
Azimuth
Unknown
Elevation
Unknown
Doppler factor
Unknown
Orbital elements
Apogee altitude
156.735 km
Perigee altitude
147.182 km
Semi-major axis
6,530.095 km
Eccentricity
0.00073
Inclination
51.6482°
RAAN
0.7405°
Arg. of periapsis
84.8434°
True anomaly
275.25953°
Mean anomaly
275.343°
Eccentric anomaly
275.30127°
Mean motion
4.11305 °/min
Orbital period
87.53 mins
BSTAR
0.00027517
Loading maneuver chart data...
Computing Atmospheric mass density...
Loading historical data...
Loading historical data...
Loading historical data...
Loading historical data...
Loading historical data...
Loading historical data...
Loading historical data...
Other satellites on launch #58 in the year 2026 (2026-03-22 UTC)

Documentation

Showing up to 5 results
|